Time,TemperatureF,DewpointF,PressureIn,WindDirection,WindDirectionDegrees,WindSpeedMPH,WindSpeedGustMPH,Humidity,HourlyPrecipIn,Conditions,Clouds,dailyrainin,SoftwareType,DateUTC
2013-08-31 00:02:00,72.2,72.0,29.92,ESE,110,0.0,0.0,98,0.00,,,0.10,weatherlink.com 1.10,2013-08-31 04:02:00,
2013-08-31 00:17:00,72.0,71.0,29.92,ESE,109,0.0,0.0,98,0.00,,,0.00,weatherlink.com 1.10,2013-08-31 04:17:00,
2013-08-31 00:32:00,72.0,72.0,29.92,ESE,110,0.0,0.0,99,0.00,,,0.00,weatherlink.com 1.10,2013-08-31 04:32:00,
2013-08-31 00:47:00,71.9,71.0,29.93,ESE,110,0.0,0.0,98,0.00,,,0.00,weatherlink.com 1.10,2013-08-31 04:47:00,
2013-08-31 01:02:00,72.0,72.0,29.93,ESE,110,0.0,0.0,99,0.00,,,0.00,weatherlink.com 1.10,2013-08-31 05:02:00,
2013-08-31 01:17:00,72.2,72.0,29.93,ESE,110,0.0,0.0,99,0.00,,,0.00,weatherlink.com 1.10,2013-08-31 05:17:00,
2013-08-31 01:34:00,72.0,72.0,29.92,ESE,110,0.0,0.0,99,0.00,,,0.00,weatherlink.com 1.10,2013-08-31 05:34:00,
2013-08-31 01:47:00,72.1,72.0,29.92,ESE,110,0.0,0.0,99,0.00,,,0.00,weatherlink.com 1.10,2013-08-31 05:47:00,
2013-08-31 02:02:00,71.9,72.0,29.92,ESE,110,0.0,0.0,99,0.00,,,0.00,weatherlink.com 1.10,2013-08-31 06:02:00,
2013-08-31 02:17:00,71.6,71.0,29.92,ESE,110,0.0,0.0,99,0.00,,,0.00,weatherlink.com 1.10,2013-08-31 06:17:00,
2013-08-31 02:32:00,71.5,71.0,29.92,ESE,110,0.0,0.0,99,0.00,,,0.00,weatherlink.com 1.10,2013-08-31 06:32:00,
2013-08-31 02:47:00,71.4,71.0,29.92,ESE,110,0.0,0.0,99,0.00,,,0.00,weatherlink.com 1.10,2013-08-31 06:47:00,
2013-08-31 03:02:00,71.4,71.0,29.93,ESE,110,0.0,0.0,99,0.00,,,0.00,weatherlink.com 1.10,2013-08-31 07:02:00,
2013-08-31 03:17:00,71.4,71.0,29.92,ESE,110,0.0,0.0,99,0.00,,,0.00,weatherlink.com 1.10,2013-08-31 07:17:00,
2013-08-31 03:32:00,71.8,72.0,29.92,ESE,110,0.0,0.0,99,0.00,,,0.00,weatherlink.com 1.10,2013-08-31 07:32:00,
2013-08-31 03:47:00,71.8,72.0,29.92,ESE,110,0.0,0.0,99,0.00,,,0.00,weatherlink.com 1.10,2013-08-31 07:47:00,
2013-08-31 04:02:00,71.8,72.0,29.91,ESE,110,0.0,0.0,99,0.00,,,0.00,weatherlink.com 1.10,2013-08-31 08:02:00,
2013-08-31 04:17:00,72.0,72.0,29.92,SW,229,0.0,1.0,99,0.00,,,0.00,weatherlink.com 1.10,2013-08-31 08:17:00,
2013-08-31 04:32:00,72.0,72.0,29.92,SW,220,0.0,0.0,99,0.00,,,0.00,weatherlink.com 1.10,2013-08-31 08:32:00,
2013-08-31 04:47:00,72.0,72.0,29.91,SW,220,0.0,0.0,99,0.00,,,0.00,weatherlink.com 1.10,2013-08-31 08:47:00,
2013-08-31 05:02:00,72.3,72.0,29.92,SSW,200,0.0,0.0,99,0.00,,,0.00,weatherlink.com 1.10,2013-08-31 09:02:00,
2013-08-31 05:18:00,72.3,72.0,29.92,SSW,200,0.0,0.0,99,0.00,,,0.00,weatherlink.com 1.10,2013-08-31 09:18:00,
2013-08-31 05:32:00,72.4,72.0,29.92,SSW,200,0.0,0.0,99,0.00,,,0.00,weatherlink.com 1.10,2013-08-31 09:32:00,
2013-08-31 05:47:00,72.5,72.0,29.93,SSW,200,0.0,0.0,99,0.00,,,0.00,weatherlink.com 1.10,2013-08-31 09:47:00,
2013-08-31 06:02:00,72.5,72.0,29.93,SSW,200,0.0,0.0,99,0.00,,,0.00,weatherlink.com 1.10,2013-08-31 10:02:00,
2013-08-31 06:17:00,72.4,72.0,29.93,SSW,200,0.0,0.0,99,0.00,,,0.00,weatherlink.com 1.10,2013-08-31 10:17:00,
2013-08-31 06:33:00,72.4,72.0,29.93,SSW,200,0.0,0.0,99,0.00,,,0.00,weatherlink.com 1.10,2013-08-31 10:33:00,
2013-08-31 06:48:00,72.6,72.0,29.93,South,178,0.0,0.0,99,0.00,,,0.00,weatherlink.com 1.10,2013-08-31 10:48:00,
2013-08-31 07:03:00,72.6,72.0,29.93,South,179,0.0,0.0,99,0.00,,,0.00,weatherlink.com 1.10,2013-08-31 11:03:00,
2013-08-31 07:18:00,72.6,72.0,29.93,South,179,0.0,0.0,99,0.01,,,0.01,weatherlink.com 1.10,2013-08-31 11:18:00,
2013-08-31 07:33:00,72.5,72.0,29.93,South,179,0.0,0.0,99,0.01,,,0.01,weatherlink.com 1.10,2013-08-31 11:33:00,
2013-08-31 07:48:00,72.6,72.0,29.93,South,179,0.0,0.0,99,0.01,,,0.01,weatherlink.com 1.10,2013-08-31 11:48:00,
2013-08-31 08:03:00,72.8,73.0,29.93,South,179,0.0,0.0,99,0.01,,,0.01,weatherlink.com 1.10,2013-08-31 12:03:00,
2013-08-31 08:18:00,72.7,72.0,29.93,South,179,0.0,0.0,99,0.00,,,0.01,weatherlink.com 1.10,2013-08-31 12:18:00,
2013-08-31 08:33:00,72.7,72.0,29.94,South,179,0.0,0.0,99,0.00,,,0.01,weatherlink.com 1.10,2013-08-31 12:33:00,
2013-08-31 08:48:00,73.0,73.0,29.93,South,176,0.0,0.0,99,0.00,,,0.01,weatherlink.com 1.10,2013-08-31 12:48:00,
2013-08-31 09:04:00,73.5,73.0,29.93,SW,231,0.0,0.0,99,0.00,,,0.01,weatherlink.com 1.10,2013-08-31 13:04:00,
2013-08-31 09:18:00,74.2,74.0,29.94,SW,227,0.0,1.0,99,0.00,,,0.01,weatherlink.com 1.10,2013-08-31 13:18:00,
2013-08-31 09:33:00,74.6,74.0,29.94,SW,224,0.0,1.0,99,0.00,,,0.01,weatherlink.com 1.10,2013-08-31 13:33:00,
2013-08-31 09:48:00,75.2,75.0,29.94,SW,224,0.0,0.0,98,0.00,,,0.01,weatherlink.com 1.10,2013-08-31 13:48:00,
2013-08-31 10:03:00,76.7,76.0,29.94,ESE,113,0.0,1.0,96,0.00,,,0.01,weatherlink.com 1.10,2013-08-31 14:03:00,
2013-08-31 10:18:00,77.5,76.0,29.95,NW,312,0.0,1.0,94,0.00,,,0.01,weatherlink.com 1.10,2013-08-31 14:18:00,
2013-08-31 10:33:00,78.3,76.0,29.95,NW,313,0.0,0.0,92,0.00,,,0.01,weatherlink.com 1.10,2013-08-31 14:33:00,
2013-08-31 10:48:00,79.0,76.0,29.95,West,274,0.0,1.0,91,0.00,,,0.01,weatherlink.com 1.10,2013-08-31 14:48:00,
2013-08-31 11:03:00,79.8,76.0,29.95,NNW,342,0.0,1.0,89,0.00,,,0.01,weatherlink.com 1.10,2013-08-31 15:03:00,
2013-08-31 11:18:00,79.8,76.0,29.95,West,268,0.0,3.0,88,0.00,,,0.01,weatherlink.com 1.10,2013-08-31 15:18:00,
2013-08-31 11:33:00,80.0,76.0,29.95,SW,225,0.0,1.0,88,0.00,,,0.01,weatherlink.com 1.10,2013-08-31 15:33:00,
2013-08-31 11:48:00,81.4,76.0,29.95,NW,324,0.0,2.0,84,0.00,,,0.01,weatherlink.com 1.10,2013-08-31 15:48:00,
2013-08-31 12:03:00,83.4,77.0,29.94,NNW,340,0.0,1.0,81,0.00,,,0.01,weatherlink.com 1.10,2013-08-31 16:03:00,
2013-08-31 12:18:00,83.5,77.0,29.94,ESE,108,2.0,2.0,81,0.00,,,0.01,weatherlink.com 1.10,2013-08-31 16:18:00,
2013-08-31 12:33:00,83.9,78.0,29.94,ESE,108,0.0,2.0,81,0.00,,,0.01,weatherlink.com 1.10,2013-08-31 16:33:00,
2013-08-31 12:48:00,85.5,77.0,29.93,East,99,2.0,3.0,76,0.00,,,0.01,weatherlink.com 1.10,2013-08-31 16:48:00,
2013-08-31 13:03:00,86.2,78.0,29.93,SE,124,1.0,2.0,77,0.00,,,0.01,weatherlink.com 1.10,2013-08-31 17:03:00,
2013-08-31 13:18:00,86.6,79.0,29.93,ESE,115,0.0,5.0,77,0.00,,,0.01,weatherlink.com 1.10,2013-08-31 17:18:00,
2013-08-31 13:34:00,88.3,79.0,29.92,West,263,0.0,1.0,74,0.00,,,0.01,weatherlink.com 1.10,2013-08-31 17:34:00,
2013-08-31 13:49:00,88.2,78.0,29.91,WNW,293,0.0,2.0,72,0.00,,,0.01,weatherlink.com 1.10,2013-08-31 17:49:00,
2013-08-31 14:04:00,87.6,78.0,29.91,West,271,0.0,1.0,73,0.00,,,0.01,weatherlink.com 1.10,2013-08-31 18:04:00,
2013-08-31 14:19:00,82.2,75.0,29.92,ENE,66,0.0,4.0,79,0.03,,,0.04,weatherlink.com 1.10,2013-08-31 18:19:00,
2013-08-31 14:34:00,78.7,75.0,29.90,ENE,65,0.0,1.0,87,0.03,,,0.04,weatherlink.com 1.10,2013-08-31 18:34:00,
2013-08-31 14:49:00,79.2,77.0,29.89,ENE,62,0.0,1.0,93,0.03,,,0.04,weatherlink.com 1.10,2013-08-31 18:49:00,
2013-08-31 15:04:00,82.5,78.0,29.88,ENE,61,0.0,1.0,86,0.03,,,0.04,weatherlink.com 1.10,2013-08-31 19:04:00,
2013-08-31 15:19:00,85.3,77.0,29.87,WSW,253,1.0,2.0,77,0.00,,,0.04,weatherlink.com 1.10,2013-08-31 19:19:00,
2013-08-31 15:34:00,86.6,78.0,29.87,WNW,299,0.0,1.0,75,0.00,,,0.04,weatherlink.com 1.10,2013-08-31 19:34:00,
2013-08-31 15:49:00,88.2,79.0,29.85,NW,308,0.0,1.0,74,0.00,,,0.04,weatherlink.com 1.10,2013-08-31 19:49:00,
2013-08-31 16:04:00,90.3,79.0,29.84,NW,304,0.0,0.0,69,0.00,,,0.04,weatherlink.com 1.10,2013-08-31 20:04:00,
2013-08-31 16:19:00,90.9,80.0,29.84,NNW,348,0.0,1.0,70,0.00,,,0.04,weatherlink.com 1.10,2013-08-31 20:19:00,
2013-08-31 16:34:00,91.3,79.0,29.84,NE,49,0.0,1.0,67,0.00,,,0.04,weatherlink.com 1.10,2013-08-31 20:34:00,
2013-08-31 16:49:00,91.5,79.0,29.84,East,86,0.0,1.0,66,0.00,,,0.04,weatherlink.com 1.10,2013-08-31 20:49:00,
2013-08-31 17:04:00,90.8,77.0,29.84,ESE,112,0.0,1.0,65,0.00,,,0.04,weatherlink.com 1.10,2013-08-31 21:04:00,
2013-08-31 17:19:00,87.7,79.0,29.84,ESE,112,0.0,1.0,74,0.00,,,0.04,weatherlink.com 1.10,2013-08-31 21:19:00,
2013-08-31 17:34:00,86.6,79.0,29.84,ESE,112,0.0,0.0,77,0.00,,,0.04,weatherlink.com 1.10,2013-08-31 21:34:00,
2013-08-31 17:49:00,85.4,79.0,29.84,East,98,0.0,1.0,82,0.00,,,0.04,weatherlink.com 1.10,2013-08-31 21:49:00,
2013-08-31 18:04:00,84.1,75.0,29.84,ESE,121,0.0,1.0,75,0.00,,,0.04,weatherlink.com 1.10,2013-08-31 22:04:00,
2013-08-31 18:19:00,83.4,74.0,29.83,East,100,0.0,1.0,73,0.00,,,0.04,weatherlink.com 1.10,2013-08-31 22:19:00,
2013-08-31 18:34:00,82.7,74.0,29.83,East,100,0.0,0.0,75,0.00,,,0.04,weatherlink.com 1.10,2013-08-31 22:34:00,
2013-08-31 18:49:00,81.6,75.0,29.82,East,100,0.0,1.0,79,0.00,,,0.04,weatherlink.com 1.10,2013-08-31 22:49:00,
2013-08-31 19:04:00,80.8,75.0,29.83,East,100,0.0,1.0,83,0.00,,,0.04,weatherlink.com 1.10,2013-08-31 23:04:00,
2013-08-31 19:19:00,79.8,75.0,29.84,East,100,0.0,1.0,86,0.00,,,0.04,weatherlink.com 1.10,2013-08-31 23:19:00,
2013-08-31 19:34:00,79.0,76.0,29.84,East,100,0.0,0.0,89,0.00,,,0.04,weatherlink.com 1.10,2013-08-31 23:34:00,
2013-08-31 19:49:00,78.5,75.0,29.85,East,100,0.0,1.0,90,0.00,,,0.04,weatherlink.com 1.10,2013-08-31 23:49:00,
2013-08-31 20:04:00,78.6,76.0,29.85,East,100,0.0,0.0,90,0.00,,,0.04,weatherlink.com 1.10,2013-09-01 00:04:00,
2013-08-31 20:19:00,78.3,75.0,29.86,East,100,0.0,1.0,90,0.00,,,0.04,weatherlink.com 1.10,2013-09-01 00:19:00,
2013-08-31 20:34:00,77.7,75.0,29.86,East,100,0.0,0.0,91,0.00,,,0.04,weatherlink.com 1.10,2013-09-01 00:34:00,
2013-08-31 20:49:00,77.2,75.0,29.87,East,100,0.0,1.0,91,0.00,,,0.04,weatherlink.com 1.10,2013-09-01 00:49:00,
2013-08-31 21:04:00,76.7,74.0,29.87,East,100,0.0,1.0,92,0.00,,,0.04,weatherlink.com 1.10,2013-09-01 01:04:00,
2013-08-31 21:19:00,76.2,74.0,29.88,East,100,0.0,0.0,93,0.00,,,0.04,weatherlink.com 1.10,2013-09-01 01:19:00,
2013-08-31 21:34:00,76.1,74.0,29.88,East,100,0.0,1.0,93,0.00,,,0.04,weatherlink.com 1.10,2013-09-01 01:34:00,
2013-08-31 21:49:00,75.6,74.0,29.88,East,100,0.0,1.0,94,0.00,,,0.04,weatherlink.com 1.10,2013-09-01 01:49:00,
2013-08-31 22:04:00,75.1,74.0,29.87,East,100,0.0,1.0,95,0.00,,,0.04,weatherlink.com 1.10,2013-09-01 02:04:00,
2013-08-31 22:19:00,74.8,73.0,29.87,East,100,0.0,0.0,95,0.00,,,0.04,weatherlink.com 1.10,2013-09-01 02:19:00,
2013-08-31 22:34:00,74.6,73.0,29.87,East,100,0.0,0.0,96,0.00,,,0.04,weatherlink.com 1.10,2013-09-01 02:34:00,
2013-08-31 22:49:00,74.4,73.0,29.88,East,100,0.0,1.0,96,0.00,,,0.04,weatherlink.com 1.10,2013-09-01 02:49:00,
2013-08-31 23:04:00,74.1,73.0,29.88,East,100,0.0,0.0,96,0.00,,,0.04,weatherlink.com 1.10,2013-09-01 03:04:00,
2013-08-31 23:19:00,73.8,73.0,29.88,ESE,102,0.0,0.0,96,0.00,,,0.04,weatherlink.com 1.10,2013-09-01 03:19:00,
2013-08-31 23:34:00,73.6,73.0,29.88,East,101,0.0,0.0,97,0.00,,,0.04,weatherlink.com 1.10,2013-09-01 03:34:00,
2013-08-31 23:50:00,73.5,73.0,29.88,ESE,102,0.0,0.0,97,0.00,,,0.04,weatherlink.com 1.10,2013-09-01 03:50:00,